This is the latest recevied weather packets stored in our database for station/object K4ZZR. If no packets are shown the sender has not sent any weather packets the latest 10 day(s).
| Time | Temp. | Humidity | Pressure | Rain* | Wind** | Luminosity | Snow |
|---|---|---|---|---|---|---|---|
| 1778194661 | 28.33° C | 77% | 1012.8 hPa | 0 mm | - | 88 W/m² | - |
| 1778194357 | 28.33° C | 76% | 1013 hPa | 0 mm | - | 103 W/m² | - |
| 1778194053 | 28.89° C | 76% | 1012.8 hPa | 0 mm | - | 118 W/m² | - |
| 1778193750 | 28.89° C | 76% | 1012.9 hPa | 0 mm | - | 129 W/m² | - |
| 1778193446 | 28.89° C | 75% | 1012.6 hPa | 0 mm | - | 136 W/m² | - |
| 1778193143 | 28.89° C | 74% | 1012.6 hPa | 0 mm | - | 152 W/m² | - |
| 1778192840 | 28.89° C | 75% | 1012.8 hPa | 0 mm | - | 155 W/m² | - |
| 1778192536 | 28.89° C | 74% | 1012.7 hPa | 0 mm | - | 173 W/m² | - |
| 1778192233 | 28.89° C | 74% | 1012.9 hPa | 0 mm | - | 199 W/m² | - |
| 1778191929 | 28.89° C | 74% | 1012.7 hPa | 0 mm | - | 215 W/m² | - |
| 1778191626 | 28.89° C | 76% | 1012.7 hPa | 0 mm | - | 227 W/m² | - |
| 1778191324 | 28.89° C | 77% | 1012.5 hPa | 0 mm | - | 245 W/m² | - |
| 1778191020 | 28.89° C | 77% | 1012.6 hPa | 0 mm | - | 271 W/m² | - |
| 1778190718 | 29.44° C | 76% | 1012.9 hPa | 0 mm | - | 286 W/m² | - |
| 1778190415 | 29.44° C | 76% | 1012.9 hPa | 0 mm | - | 305 W/m² | - |
| 1778190111 | 29.44° C | 76% | 1012.9 hPa | 0 mm | - | 328 W/m² | - |
| 1778189807 | 29.44° C | 75% | 1013.1 hPa | 0 mm | - | 380 W/m² | - |
| 1778189504 | 29.44° C | 76% | 1012.8 hPa | 0 mm | - | 367 W/m² | - |
| 1778189201 | 29.44° C | 76% | 1012.9 hPa | 0 mm | - | 403 W/m² | - |
| 1778188898 | 30° C | 74% | 1012.9 hPa | 0 mm | - | 409 W/m² | - |
| 1778188594 | 29.44° C | 74% | 1013.1 hPa | 0 mm | - | 436 W/m² | - |
| 1778188290 | 29.44° C | 75% | 1013.1 hPa | 0 mm | - | 468 W/m² | - |
| 1778187988 | 30° C | 73% | 1013.3 hPa | 0 mm | - | 484 W/m² | - |
| 1778187684 | 30° C | 75% | 1013.1 hPa | 0 mm | - | 509 W/m² | - |
| 1778187381 | 30° C | 75% | 1013 hPa | 0 mm | - | 524 W/m² | - |
* Rain latest hour (hover to see other rain measurements)
** Current wind speed in m/s (hover to see current wind gust speed)